Location: Unspecified
(54.1780°N, 0.0000°E)
Time: 17:46:24
(UTC+00:00)

Tiros 1 - Pass Details

Date: 21 June 2019
Orbit: 630 x 664 km, 48.4° (Epoch: 17 August)

Event Time Altitude Azimuth Distance (km) Brightness Sun altitude
Rises 05:44:40 0° 272° (W) 2,924 9.9 16.4°
Reaches altitude 10° 05:48:04 10° 246° (WSW) 2,009 9.1 16.9°
Maximum altitude 05:50:18 13° 217° (SW) 1,784 9.0 17.2°
Drops below altitude 10° 05:52:32 10° 188° (S) 2,004 9.5 17.5°
Sets 05:55:56 0° 162° (SSE) 2,908 10.6 18.0°
